CW5391 Weather Reports


Display with metric or nautical units.
time (UTC)temp
F
wind
direction
speed
MPH
gust
MPH
rain 1hr
in
rain 24hr
in
rain mn
in
humidity
%
barometer
mb
20260510190324 62 169 2.0 7.0 0.00 0.03 0.02 66 1008.6
20260510185813 62 147 4.0 7.0 0.00 0.04 0.02 67 1008.8
20260510185325 62 169 3.0 7.0 0.00 0.04 0.02 65 1008.8
20260510184837 62 137 3.0 8.0 0.00 0.04 0.02 65 1008.8
20260510184323 63 209 4.0 8.0 0.00 0.04 0.02 63 1008.8
20260510183832 63 277 3.0 11.0 0.00 0.04 0.02 71 1008.8
20260510183347 62 71 4.0 11.0 0.00 0.04 0.02 68 1008.8
20260510182814 60 182 3.0 8.0 0.00 0.04 0.02 69 1008.9
20260510182342 59 298 3.0 8.0 0.00 0.04 0.02 69 1008.9
20260510181821 60 42 2.0 7.0 0.00 0.04 0.02 69 1008.9
20260510181330 60 130 3.0 7.0 0.00 0.04 0.02 68 1008.8
20260510180841 60 142 3.0 8.0 0.00 0.04 0.02 66 1008.8
20260510180321 60 32 2.0 8.0 0.00 0.04 0.02 70 1008.8
20260510175812 60 117 3.0 9.0 0.00 0.05 0.02 69 1008.7
20260510175321 60 171 3.0 8.0 0.00 0.05 0.02 66 1008.7
20260510174817 60 298 3.0 8.0 0.00 0.05 0.02 66 1008.7
20260510174324 60 247 2.0 8.0 0.00 0.05 0.02 70 1008.8
20260510173833 59 27 1.0 8.0 0.00 0.05 0.02 70 1008.8
20260510173343 59 157 1.0 5.0 0.00 0.05 0.02 73 1008.8
20260510172817 58 150 2.0 5.0 0.00 0.05 0.02 76 1008.8
20260510172356 57 152 3.0 5.0 0.00 0.05 0.02 78 1008.8
20260510171829 57 163 2.0 4.0 0.00 0.05 0.02 79 1008.8
20260510171317 56 117 1.0 5.0 0.00 0.05 0.02 78 1008.9
20260510170832 56 204 2.0 5.0 0.00 0.05 0.02 80 1008.9
20260510170313 56 5 1.0 4.0 0.00 0.07 0.02 81 1008.9
20260510165824 56 173 2.0 4.0 0.00 0.07 0.02 82 1009.0
20260510165319 56 298 2.0 4.0 0.00 0.07 0.02 82 1009.0
20260510164843 56 24 2.0 4.0 0.00 0.07 0.02 82 1009.0
20260510164315 56 52 2.0 6.0 0.00 0.07 0.02 82 1008.9
20260510163819 57 355 1.0 6.0 0.00 0.07 0.02 81 1008.9
20260510163314 57 18 3.0 8.0 0.00 0.07 0.02 80 1008.9
20260510162824 57 298 4.0 8.0 0.00 0.07 0.02 79 1008.9
20260510162332 57 13 4.0 8.0 0.00 0.07 0.02 83 1008.9
20260510161841 57 154 3.0 9.0 0.00 0.07 0.02 81 1008.9
20260510161328 57 144 4.0 8.0 0.00 0.07 0.02 82 1009.0
20260510160900 57 120 3.0 8.0 0.00 0.07 0.02 83 1009.0
20260510160314 56 195 3.0 8.0 0.00 0.13 0.02 83 1009.0
20260510155818 56 36 2.0 6.0 0.00 0.13 0.02 85 1008.9
20260510155332 55 142 2.0 7.0 0.00 0.13 0.02 85 1008.9
20260510154838 55 220 3.0 7.0 0.00 0.13 0.02 85 1008.9
20260510154319 55 142 2.0 4.0 0.00 0.13 0.02 88 1008.7
20260510153828 54 61 1.0 8.0 0.00 0.13 0.02 87 1008.7
20260510153327 54 111 0.0 8.0 0.00 0.13 0.02 86 1008.7
20260510152817 54 109 3.0 5.0 0.00 0.13 0.02 85 1008.6
20260510152326 54 296 2.0 5.0 0.01 0.13 0.02 86 1008.6
20260510151836 54 22 2.0 6.0 0.01 0.13 0.02 86 1008.6
20260510151323 54 342 2.0 8.0 0.01 0.13 0.02 86 1008.5
20260510150833 54 234 4.0 8.0 0.01 0.13 0.02 87 1008.5
20260510150342 54 94 2.0 7.0 0.01 0.13 0.02 89 1008.5
20260510145854 54 118 2.0 4.0 0.01 0.15 0.02 90 1008.1
20260510145323 54 109 1.0 3.0 0.01 0.15 0.02 89 1008.1
20260510144821 54 217 1.0 3.0 0.01 0.15 0.02 89 1008.1
20260510144342 54 146 0.0 2.0 0.01 0.15 0.02 88 1007.9
20260510143815 55 112 1.0 5.0 0.01 0.15 0.02 89 1007.9
20260510143327 55 245 2.0 5.0 0.01 0.15 0.02 88 1007.9
20260510142813 55 127 1.0 6.0 0.01 0.15 0.02 86 1008.3
20260510142313 55 57 1.0 6.0 0.00 0.14 0.01 85 1008.3
20260510141817 55 118 3.0 6.0 0.00 0.14 0.01 85 1008.3
20260510141327 56 246 2.0 5.0 0.00 0.14 0.01 85 1007.9
20260510140838 56 241 2.0 5.0 0.00 0.14 0.01 84 1007.9
20260510140328 56 123 1.0 6.0 0.00 0.14 0.01 85 1007.9
20260510135834 56 210 2.0 6.0 0.00 0.14 0.01 84 1007.4
20260510135313 56 130 3.0 5.0 0.00 0.14 0.01 83 1007.4
20260510134818 57 142 1.0 4.0 0.00 0.14 0.01 84 1007.4
20260510134319 57 134 1.0 4.0 0.00 0.14 0.01 82 1007.3
20260510133814 57 278 1.0 6.0 0.00 0.14 0.01 82 1007.3
20260510133328 57 198 2.0 6.0 0.00 0.14 0.01 82 1007.3
20260510132820 58 242 2.0 7.0 0.00 0.14 0.01 82 1007.2
20260510132330 58 215 2.0 7.0 0.00 0.14 0.01 81 1007.2
20260510131829 58 120 4.0 7.0 0.00 0.14 0.01 81 1007.2
20260510131320 58 229 2.0 5.0 0.00 0.14 0.01 82 1007.4
20260510130828 58 128 1.0 5.0 0.00 0.14 0.01 85 1007.4
20260510125832 57 139 4.0 7.0 0.00 0.14 0.01 84 1007.4
20260510125402 56 202 2.0 7.0 0.00 0.14 0.01 85 1007.4
20260510124815 56 180 2.0 5.0 0.00 0.14 0.01 86 1007.4
20260510124324 56 205 2.0 5.0 0.00 0.14 0.01 86 1007.3
20260510123816 56 316 1.0 3.0 0.00 0.14 0.01 88 1007.3
20260510123311 56 198 1.0 7.0 0.00 0.14 0.01 89 1007.3
20260510122834 55 134 2.0 7.0 0.00 0.14 0.01 87 1006.8
20260510122329 55 138 3.0 7.0 0.00 0.14 0.01 88 1006.8
20260510121818 55 227 1.0 4.0 0.00 0.14 0.01 90 1006.8
20260510121325 54 162 1.0 4.0 0.00 0.14 0.01 90 1007.1
20260510120851 54 200 1.0 8.0 0.00 0.14 0.01 92 1007.1
20260510120316 53 182 2.0 8.0 0.00 0.14 0.01 94 1007.1
20260510115823 52 90 1.0 3.0 0.00 0.14 0.01 94 1007.3
20260510115337 51 128 0.0 4.0 0.00 0.14 0.01 94 1007.3
20260510114816 51 155 1.0 4.0 0.00 0.14 0.01 95 1007.3
20260510114348 51 215 0.0 5.0 0.00 0.14 0.01 95 1007.0
20260510113837 50 126 2.0 5.0 0.00 0.14 0.01 95 1007.0
20260510113330 50 107 0.0 2.0 0.00 0.14 0.01 95 1007.0
20260510112819 50 101 0.0 2.0 0.00 0.14 0.01 95 1006.8
20260510112315 49 101 0.0 2.0 0.00 0.14 0.01 95 1006.8
20260510111827 50 51 0.0 1.0 0.00 0.14 0.01 95 1006.8
20260510111330 50 131 0.0 0.0 0.00 0.14 0.01 95 1006.5
20260510110841 50 131 0.0 1.0 0.00 0.14 0.01 95 1006.5
20260510110330 50 131 0.0 1.0 0.00 0.14 0.01 95 1006.5
20260510105838 50 131 0.0 2.0 0.00 0.14 0.01 95 1006.3
20260510105317 50 164 0.0 3.0 0.00 0.14 0.01 95 1006.3
20260510104850 50 155 1.0 3.0 0.00 0.14 0.01 95 1006.3
20260510104313 50 132 1.0 3.0 0.00 0.14 0.01 95 1006.0
20260510103822 49 116 1.0 3.0 0.00 0.14 0.01 95 1006.0
20260510103319 49 123 2.0 2.0 0.00 0.14 0.01 95 1006.0
20260510102846 49 123 2.0 2.0 0.00 0.14 0.01 95 1006.3
20260510102336 49 123 1.0 2.0 0.00 0.14 0.01 95 1006.3
20260510101815 49 123 0.0 0.0 0.00 0.14 0.01 95 1006.3
20260510101319 49 123 0.0 1.0 0.00 0.14 0.01 95 1006.0
20260510100904 49 123 0.0 1.0 0.00 0.14 0.01 95 1006.0
20260510100316 49 123 0.0 2.0 0.00 0.14 0.01 94 1006.0
20260510095826 49 123 0.0 1.0 0.00 0.14 0.01 94 1005.4
20260510095315 49 123 0.0 1.0 0.00 0.14 0.01 95 1005.4
20260510094844 49 123 0.0 0.0 0.00 0.14 0.01 95 1005.4
20260510094335 49 123 0.0 0.0 0.00 0.14 0.01 95 1005.4
20260510093818 49 123 0.0 0.0 0.00 0.14 0.01 95 1005.4
20260510093323 49 123 0.0 0.0 0.00 0.14 0.01 95 1005.4
20260510092835 49 123 0.0 0.0 0.00 0.14 0.01 95 1005.3
20260510092332 49 123 0.0 0.0 0.00 0.14 0.01 94 1005.3
20260510091814 49 123 0.0 2.0 0.00 0.14 0.01 93 1005.3
20260510091318 49 123 0.0 2.0 0.00 0.14 0.01 94 1005.0
20260510090828 49 123 0.0 5.0 0.00 0.14 0.01 93 1005.0
20260510090341 49 109 1.0 5.0 0.00 0.14 0.01 93 1005.0
20260510085816 50 134 1.0 4.0 0.00 0.14 0.01 93 1005.3
20260510085328 50 115 2.0 3.0 0.00 0.14 0.01 93 1005.3
20260510084838 50 109 2.0 2.0 0.00 0.14 0.01 93 1005.3
20260510084348 51 139 0.0 1.0 0.00 0.14 0.01 93 1005.0
20260510083817 51 139 0.0 2.0 0.00 0.14 0.01 93 1005.0
20260510083344 51 139 1.0 2.0 0.00 0.14 0.01 93 1005.0
20260510082813 51 169 1.0 5.0 0.00 0.14 0.01 93 1004.7
20260510082340 51 222 2.0 5.0 0.00 0.14 0.01 92 1004.7
20260510081821 51 161 2.0 10.0 0.00 0.14 0.01 92 1004.7
20260510081337 51 159 3.0 10.0 0.00 0.14 0.01 93 1004.7
20260510080858 51 161 5.0 10.0 0.00 0.14 0.01 93 1004.7
20260510080330 51 160 4.0 13.0 0.01 0.14 0.01 93 1004.7
20260510075823 51 109 4.0 13.0 0.01 0.14 0.01 93 1005.5
20260510075333 51 163 3.0 7.0 0.01 0.14 0.01 93 1005.5
20260510074838 51 114 3.0 6.0 0.01 0.14 0.01 93 1005.5
20260510074349 51 146 3.0 6.0 0.01 0.14 0.01 93 1006.1
20260510073834 51 132 2.0 4.0 0.01 0.14 0.01 93 1006.1
20260510073314 51 140 1.0 5.0 0.01 0.14 0.01 93 1006.1
20260510072826 51 138 3.0 6.0 0.01 0.14 0.01 92 1006.2
20260510072315 51 158 3.0 6.0 0.01 0.14 0.01 92 1006.2
20260510071814 51 103 1.0 3.0 0.01 0.14 0.01 92 1006.2
20260510071332 51 113 1.0 3.0 0.01 0.14 0.01 92 1006.1
20260510070829 51 166 1.0 4.0 0.00 0.13 0.00 91 1006.1
20260510070347 51 149 1.0 5.0 0.00 0.13 0.00 91 1006.1
20260510065815 52 150 2.0 5.0 0.00 0.13 0.00 90 1005.9
20260510065346 52 121 2.0 3.0 0.00 0.13 0.00 89 1005.9
20260510064826 52 152 0.0 2.0 0.00 0.13 0.00 89 1005.9
20260510064331 52 112 1.0 2.0 0.00 0.13 0.00 88 1005.6
20260510063832 52 136 1.0 3.0 0.00 0.13 0.00 89 1005.6
20260510063321 52 155 1.0 3.0 0.00 0.13 0.00 89 1005.6
20260510062810 52 140 1.0 5.0 0.00 0.13 0.00 88 1005.7
20260510062339 52 139 2.0 5.0 0.00 0.13 0.00 88 1005.7
20260510061821 51 130 2.0 5.0 0.00 0.13 0.00 88 1005.7
20260510061401 51 155 2.0 3.0 0.00 0.13 0.00 89 1005.4
20260510060841 51 155 2.0 2.0 0.00 0.13 0.00 89 1005.4
20260510060403 51 128 1.0 2.0 0.00 0.13 0.00 89 1005.4
20260510055845 51 163 1.0 2.0 0.00 0.13 0.00 89 1005.3
20260510055321 51 162 1.0 4.0 0.00 0.13 0.00 89 1005.3
20260510054813 51 162 2.0 3.0 0.00 0.13 0.00 89 1005.3
20260510054323 51 179 1.0 3.0 0.00 0.13 0.00 89 1005.3
20260510053829 51 151 1.0 3.0 0.00 0.13 0.00 89 1005.3
20260510053329 51 163 1.0 3.0 0.00 0.13 0.00 89 1005.3
20260510052814 51 182 1.0 3.0 0.00 0.13 0.00 89 1005.4
20260510052322 51 131 1.0 3.0 0.00 0.13 0.00 88 1005.4
20260510051830 51 127 1.0 2.0 0.00 0.13 0.00 88 1005.4
20260510051335 51 152 0.0 1.0 0.00 0.13 0.00 88 1005.5
20260510050826 51 152 0.0 2.0 0.00 0.13 0.00 89 1005.5
20260510050326 51 152 1.0 4.0 0.00 0.13 0.00 89 1005.5
20260510045841 51 152 1.0 4.0 0.00 0.13 0.00 89 1005.3
20260510045324 51 157 2.0 4.0 0.00 0.13 0.00 89 1005.3
20260510044835 51 169 2.0 7.0 0.00 0.13 0.00 89 1005.3
20260510044324 51 175 2.0 7.0 0.00 0.13 0.00 88 1005.3
20260510043827 51 141 2.0 4.0 0.00 0.13 0.00 89 1005.3
20260510043351 51 170 1.0 4.0 0.00 0.13 0.00 88 1005.3
20260510042814 51 175 2.0 4.0 0.00 0.13 0.00 88 1005.5
20260510042343 51 156 2.0 4.0 0.00 0.13 0.00 89 1005.5
20260510041830 51 125 1.0 3.0 0.00 0.13 0.00 89 1005.5
20260510041343 51 118 1.0 2.0 0.00 0.13 0.00 89 1005.7
20260510040831 51 118 1.0 2.0 0.00 0.13 0.00 88 1005.7
20260510040319 51 143 2.0 7.0 0.00 0.13 0.00 88 1005.7
20260510035825 51 138 2.0 7.0 0.00 0.13 0.13 88 1005.3
20260510035322 51 121 1.0 4.0 0.00 0.13 0.13 89 1005.3
20260510034814 51 131 1.0 4.0 0.00 0.13 0.13 89 1005.3
20260510034325 51 113 2.0 4.0 0.00 0.13 0.13 89 1005.3
20260510033837 51 155 2.0 4.0 0.00 0.13 0.13 89 1005.3
20260510033342 51 109 2.0 5.0 0.00 0.13 0.13 89 1005.3
20260510032847 51 142 2.0 5.0 0.00 0.13 0.13 89 1005.5
20260510032336 51 142 2.0 5.0 0.00 0.13 0.13 89 1005.5
20260510031812 51 132 1.0 6.0 0.00 0.13 0.13 90 1005.5
20260510031323 51 155 1.0 3.0 0.00 0.13 0.13 89 1005.6
20260510030832 51 111 1.0 3.0 0.00 0.13 0.13 89 1005.6
20260510030314 50 124 0.0 2.0 0.00 0.13 0.13 90 1005.6
20260510025821 50 124 1.0 2.0 0.00 0.13 0.13 90 1005.6
20260510025313 50 116 1.0 2.0 0.00 0.13 0.13 90 1005.6
20260510024845 50 171 1.0 2.0 0.00 0.13 0.13 90 1005.6
20260510024312 51 193 0.0 2.0 0.00 0.13 0.13 89 1005.5
20260510023839 51 128 0.0 3.0 0.00 0.13 0.13 89 1005.5
20260510023315 51 128 1.0 3.0 0.00 0.13 0.13 89 1005.5
20260510022826 51 105 2.0 3.0 0.00 0.13 0.13 89 1005.7
20260510022318 51 129 1.0 3.0 0.00 0.13 0.13 89 1005.7
20260510021811 51 218 0.0 5.0 0.00 0.13 0.13 88 1005.7
20260510021339 51 164 2.0 5.0 0.00 0.13 0.13 87 1005.3
20260510020815 51 124 2.0 4.0 0.00 0.13 0.13 88 1005.3
20260510020331 51 225 1.0 6.0 0.00 0.13 0.13 87 1005.3
20260510015841 51 120 2.0 8.0 0.00 0.13 0.13 87 1005.3
20260510015346 51 146 2.0 8.0 0.00 0.13 0.13 87 1005.3
20260510014838 51 144 1.0 7.0 0.00 0.13 0.13 87 1005.3
20260510014314 51 132 3.0 11.0 0.00 0.13 0.13 86 1005.7
20260510013841 51 115 3.0 11.0 0.00 0.13 0.13 86 1005.7
20260510013402 51 346 2.0 8.0 0.00 0.13 0.13 86 1005.7
20260510012818 51 77 2.0 8.0 0.00 0.13 0.13 86 1005.7
20260510012312 51 336 2.0 5.0 0.00 0.13 0.13 87 1005.7
20260510011822 51 76 2.0 5.0 0.00 0.13 0.13 87 1005.7
20260510011329 51 80 1.0 5.0 0.00 0.13 0.13 88 1005.7
20260510010838 51 145 2.0 7.0 0.00 0.13 0.13 87 1005.7
20260510010341 51 102 2.0 7.0 0.00 0.13 0.13 87 1005.7
20260510005838 51 120 1.0 6.0 0.00 0.13 0.13 87 1005.7
20260510005342 51 94 1.0 6.0 0.00 0.13 0.13 87 1005.7
20260510004825 51 179 2.0 7.0 0.00 0.13 0.13 86 1005.7
20260510004333 51 179 2.0 7.0 0.00 0.13 0.13 86 1005.3
20260510003847 51 96 2.0 7.0 0.00 0.13 0.13 87 1005.3
20260510003333 51 344 3.0 7.0 0.00 0.13 0.13 87 1005.3
20260510002824 51 142 2.0 8.0 0.00 0.13 0.13 87 1005.2
20260510002318 51 46 2.0 8.0 0.00 0.13 0.13 87 1005.2
20260510001823 52 21 1.0 8.0 0.00 0.13 0.13 86 1005.2
20260510001315 52 103 3.0 8.0 0.00 0.13 0.13 87 1005.3
20260510000829 52 108 2.0 7.0 0.00 0.13 0.13 87 1005.3
20260510000343 52 130 3.0 5.0 0.00 0.13 0.13 86 1005.3
20260509235817 52 48 2.0 6.0 0.00 0.13 0.13 87 1005.1
20260509235329 52 134 2.0 6.0 0.00 0.13 0.13 86 1005.1
20260509234838 52 140 2.0 6.0 0.00 0.13 0.13 87 1005.1
20260509234322 52 133 2.0 5.0 0.00 0.13 0.13 86 1004.8
20260509233835 52 101 3.0 5.0 0.00 0.13 0.13 87 1004.8
20260509233339 52 99 1.0 4.0 0.00 0.13 0.13 87 1004.8
20260509232828 52 308 2.0 6.0 0.00 0.13 0.13 87 1004.7
20260509232320 52 69 2.0 6.0 0.00 0.13 0.13 88 1004.7
20260509231821 52 69 2.0 7.0 0.00 0.13 0.13 88 1004.7
20260509231339 52 136 1.0 7.0 0.00 0.13 0.13 88 1004.7
20260509230848 52 130 2.0 6.0 0.00 0.13 0.13 86 1004.7
20260509230331 52 190 2.0 6.0 0.00 0.13 0.13 86 1004.7
20260509225820 52 138 3.0 6.0 0.00 0.13 0.13 86 1004.7
20260509225329 53 122 3.0 9.0 0.00 0.13 0.13 86 1004.7
20260509224856 53 114 5.0 9.0 0.00 0.13 0.13 86 1004.7
20260509224319 53 181 2.0 4.0 0.00 0.13 0.13 86 1004.7
20260509223829 53 167 1.0 5.0 0.00 0.13 0.13 88 1004.7
20260509223315 53 135 2.0 6.0 0.00 0.13 0.13 87 1004.7
20260509222826 52 180 3.0 6.0 0.00 0.13 0.13 88 1005.0
20260509222319 52 197 1.0 6.0 0.00 0.13 0.13 89 1005.0
20260509221823 52 122 3.0 6.0 0.00 0.13 0.13 89 1005.0
20260509221329 52 153 1.0 5.0 0.00 0.13 0.13 90 1005.2
20260509220841 52 183 1.0 5.0 0.00 0.13 0.13 90 1005.2
20260509220342 52 123 2.0 4.0 0.00 0.13 0.13 90 1005.2
20260509215839 52 197 1.0 5.0 0.00 0.13 0.13 91 1005.3
20260509215320 52 173 2.0 5.0 0.00 0.13 0.13 91 1005.3
20260509214824 52 175 1.0 3.0 0.00 0.13 0.13 92 1005.3
20260509214353 52 198 1.0 3.0 0.00 0.13 0.13 92 1005.4
20260509213842 51 199 0.0 5.0 0.00 0.13 0.13 92 1005.4
20260509213319 51 133 1.0 4.0 0.00 0.13 0.13 93 1005.4
20260509212823 51 217 2.0 5.0 0.00 0.13 0.13 92 1005.6
20260509212336 51 175 0.0 5.0 0.00 0.13 0.13 92 1005.6
20260509211827 51 163 1.0 3.0 0.00 0.13 0.13 93 1005.6
20260509211317 51 141 1.0 6.0 0.00 0.13 0.13 93 1005.8
20260509210816 51 200 1.0 6.0 0.00 0.13 0.13 93 1005.8
20260509210348 51 169 1.0 4.0 0.00 0.13 0.13 93 1005.8
20260509205814 51 169 1.0 4.0 0.00 0.13 0.13 93 1005.8
20260509205330 51 217 2.0 4.0 0.01 0.13 0.13 93 1005.8
20260509204833 51 177 2.0 6.0 0.01 0.13 0.13 93 1005.8
20260509204326 51 163 1.0 7.0 0.01 0.13 0.13 93 1005.9
20260509203819 51 142 2.0 8.0 0.01 0.13 0.13 93 1005.9
20260509203328 51 180 2.0 8.0 0.01 0.13 0.13 93 1005.9
20260509202813 51 163 2.0 5.0 0.01 0.13 0.13 94 1006.1
20260509202323 51 182 1.0 3.0 0.01 0.13 0.13 94 1006.1
20260509201820 51 209 1.0 4.0 0.01 0.13 0.13 94 1006.1
20260509201314 51 227 1.0 4.0 0.01 0.13 0.13 94 1006.1
20260509200827 51 210 1.0 2.0 0.01 0.13 0.13 94 1006.1
20260509200334 51 210 0.0 1.0 0.01 0.13 0.13 94 1006.1
20260509195845 51 209 0.0 1.0 0.01 0.13 0.13 94 1006.2
20260509195333 51 188 0.0 0.0 0.00 0.12 0.12 93 1006.2
20260509194830 51 188 0.0 0.0 0.00 0.12 0.12 94 1006.2
20260509194351 51 188 0.0 0.0 0.00 0.12 0.12 94 1006.3
20260509193855 51 188 0.0 1.0 0.00 0.12 0.12 93 1006.3
20260509193315 51 186 0.0 1.0 0.00 0.12 0.12 93 1006.3
20260509192824 51 158 0.0 0.0 0.00 0.12 0.12 93 1006.3
20260509192312 51 158 0.0 1.0 0.00 0.12 0.12 94 1006.3
20260509191847 50 169 0.0 2.0 0.01 0.12 0.12 94 1006.3
20260509191335 50 147 0.0 2.0 0.01 0.12 0.12 94 1006.3
20260509190845 50 140 0.0 2.0 0.01 0.12 0.12 93 1006.3